Location: Berlin
(52.5171°N, 13.3759°E)
Time: 12:04:50
(UTC+01:00)

ISS - Pass Details

Date: 15 November 2017
Orbit: 402 x 407 km, 51.6° (Epoch: 23 November)

Event Time Altitude Azimuth Distance (km) Brightness Sun altitude
Exits shadow 04:55:11 23° 154° (SSE) 914 -1.8 -23.0°
Drops below altitude 10° 04:56:44 10° 137° (SE) 1,453 -0.5 -22.8°
Sets 04:58:54 0° 128° (SE) 2,309 0.8 -22.5°
